TimeEDT,TemperatureF,Dew PointF,Humidity,Sea Level PressureIn,VisibilityMPH,Wind Direction,Wind SpeedMPH,Gust SpeedMPH,PrecipitationIn,Events,Conditions,WindDirDegrees,DateUTC
12:53 AM,62.1,57.9,86,30.15,10.0,Calm,Calm,-,N/A,,Clear,0,2013-09-05 04:53:00
1:53 AM,61.0,57.0,87,30.15,10.0,Calm,Calm,-,N/A,,Clear,0,2013-09-05 05:53:00
2:53 AM,59.0,55.9,90,30.14,10.0,Calm,Calm,-,N/A,,Clear,0,2013-09-05 06:53:00
3:53 AM,57.9,55.0,90,30.14,10.0,Calm,Calm,-,N/A,,Clear,0,2013-09-05 07:53:00
4:53 AM,57.0,54.0,89,30.14,10.0,Calm,Calm,-,N/A,,Clear,0,2013-09-05 08:53:00
5:53 AM,57.0,54.0,89,30.15,10.0,Calm,Calm,-,N/A,,Clear,0,2013-09-05 09:53:00
6:53 AM,55.9,53.1,90,30.17,10.0,Calm,Calm,-,N/A,,Clear,0,2013-09-05 10:53:00
7:05 AM,55.4,53.6,94,30.20,1.8,Calm,Calm,-,N/A,,Clear,0,2013-09-05 11:05:00
7:12 AM,55.4,53.6,94,30.20,3.0,Calm,Calm,-,N/A,,Clear,0,2013-09-05 11:12:00
7:26 AM,55.4,53.6,94,30.21,9.0,South,3.5,-,N/A,,Scattered Clouds,170,2013-09-05 11:26:00
7:34 AM,55.4,53.6,94,30.21,10.0,Calm,Calm,-,N/A,,Mostly Cloudy,0,2013-09-05 11:34:00
7:53 AM,55.9,54.0,93,30.19,8.0,Calm,Calm,-,0.01,,Mostly Cloudy,0,2013-09-05 11:53:00
8:09 AM,57.2,55.4,94,30.21,10.0,Calm,Calm,-,N/A,,Partly Cloudy,0,2013-09-05 12:09:00
8:53 AM,61.0,57.9,90,30.19,10.0,Calm,Calm,-,N/A,,Clear,0,2013-09-05 12:53:00
9:53 AM,68.0,61.0,78,30.19,10.0,Calm,Calm,-,N/A,,Clear,0,2013-09-05 13:53:00
10:53 AM,73.9,61.0,64,30.20,10.0,North,5.8,-,N/A,,Clear,10,2013-09-05 14:53:00
11:53 AM,77.0,61.0,58,30.20,10.0,NNE,9.2,-,N/A,,Clear,20,2013-09-05 15:53:00
12:53 PM,77.0,60.1,56,30.19,10.0,NE,8.1,-,N/A,,Clear,40,2013-09-05 16:53:00
1:53 PM,80.1,60.1,50,30.18,10.0,Variable,3.5,-,N/A,,Clear,0,2013-09-05 17:53:00
2:53 PM,81.0,61.0,50,30.17,10.0,Calm,Calm,-,N/A,,Clear,0,2013-09-05 18:53:00
3:53 PM,82.0,60.1,47,30.15,10.0,NE,6.9,-,N/A,,Clear,50,2013-09-05 19:53:00
4:53 PM,81.0,60.1,49,30.14,10.0,ENE,3.5,-,N/A,,Clear,70,2013-09-05 20:53:00
5:53 PM,81.0,60.1,49,30.14,10.0,NE,5.8,-,N/A,,Clear,50,2013-09-05 21:53:00
6:53 PM,80.1,61.0,52,30.14,10.0,NNE,3.5,-,N/A,,Clear,20,2013-09-05 22:53:00
7:53 PM,75.9,62.1,62,30.15,10.0,NE,3.5,-,N/A,,Clear,40,2013-09-05 23:53:00
8:53 PM,72.0,64.0,76,30.16,10.0,Calm,Calm,-,N/A,,Clear,0,2013-09-06 00:53:00
9:53 PM,69.1,64.0,84,30.16,10.0,Calm,Calm,-,N/A,,Clear,0,2013-09-06 01:53:00
10:53 PM,66.9,64.0,90,30.17,9.0,Calm,Calm,-,N/A,,Clear,0,2013-09-06 02:53:00
11:53 PM,66.0,62.1,87,30.17,10.0,Calm,Calm,-,N/A,,Clear,0,2013-09-06 03:53:00